Tracking 18980 objects as of 19-Feb-2018
HD Live streaming from Space Station
objects crossing your sky now

INTELSAT 502

Track INTELSAT 502 now!
INTELSAT 502 is classified as:


NORAD ID: 12089
Int'l Code: 1980-098A
Perigee: 36,120.7 km
Apogee: 36,249.0 km
Inclination: 15.0 °
Period: 1,456.1 minutes
Semi major axis: 42555 km
RCS: 13.5237 m2 (large)
Launch date: December 6, 1980
Source: International Telecommunications Satellite Organization (ITSO)
Launch site: AIR FORCE EASTERN TEST RANGE (AFETR)
aabbcc
Your satellite tracking list
Your tracking list is empty




NASA's NSSDC Master Catalog

Two Line Element Set (TLE):
1 12089U 80098A   18049.60933818 -.00000282 +00000-0 +00000-0 0  9998
2 12089 014.9656 351.9461 0015076 274.0014 251.3272 00.98892522103651
Source of the keplerian elements: AFSPC